Location: 22
(39.7117°N, 89.5929°W)
Time: 07:26:31
(UTC-05:00)

ISS - Pass Details

Date: 27 September 2021
Orbit: 417 x 423 km, 51.6° (Epoch: 16 October)

Event Time Altitude Azimuth Distance (km) Brightness Sun altitude
Rises 20:55:59 0° 314° (NW) 2,365 1.1 -25.3°
Reaches altitude 10° 20:58:35 10° 335° (NNW) 1,501 -0.4 -25.8°
Enters shadow 20:59:29 14° 348° (NNW) 1,284 -1.0 -25.9°
